[[{"header":{"parameterUnit":"m.s-1","parameterCategory":2,"la1":30.2991,"la2":30.254,"lo1":-89.0895,"lo2":-89.0444,"dy":0.0017,"dx":0.0017,"nx":28,"ny":28,"refTime":"2025-04-14T09:00:00:Z","depth":"0","parameterNumber":2,"parameterNumberName":"U-component_of_CURRENTS"},"data":[0,0,0,0,0,0,0,0,0,0,0,0,0,0,0,0,0,0,0,0,0,0,0,0,0,0,0,0,0,0,0,0,0,0,0,0,0,0,0,0,0,0,0,0,0,0,0,0,0,0,0,0,0,0,0,0,0,0,0.2356,0.2356,0,0.2353,0.2353,0.2353,0.2326,0.2326,0.2326,0.2325,0.2324,0.2324,0.2324,0,0,0,0,0,0,0,0,0,0,0,0,0,0.2313,0.2314,0.2356,0.2356,0.2357,0.2353,0.2353,0.2352,0.2326,0.2326,0.2326,0.2325,0.2323,0.2324,0.2324,0,0,0,0,0,0,0,0,0,0,0,0,0,0.2319,0.2314,0.2356,0.2346,0.2346,0.2353,0.2353,0.2352,0.2326,0.2326,0.2326,0.2325,0.2323,0.2324,0.2324,0.2334,0,0,0.2325,0.2325,0,0,0,0,0,0,0,0,0.2319,0.232,0.2347,0.2347,0.2346,0.2343,0.2337,0.2348,0.2326,0.2329,0.2325,0.2325,0.2333,0.2333,0.2327,0.2334,0.2334,0.2325,0.2325,0.2325,0.2325,0,0,0,0,0,0,0,0.2319,0.232,0.235,0.2348,0.2347,0.2334,0.2334,0.2339,0.233,0.2329,0.2328,0.2335,0.2332,0.2327,0.2327,0.2334,0.2325,0.2325,0.2325,0.2325,0.2347,0.2348,0,0,0,0,0,0,0.233,0.232,0.2351,0.2351,0.2336,0.2335,0.2335,0.2341,0.233,0.2329,0.2335,0.2334,0.2326,0.2327,0.2327,0.2354,0.2325,0.2325,0.2326,0.2347,0.2348,0.2348,0,0,0,0,0,0,0.2329,0.2332,0.2351,0.2339,0.2341,0.2337,0.2344,0.2342,0.234,0.2336,0.2334,0.2337,0.2326,0.2326,0.2328,0.2354,0.2326,0.2326,0.2347,0.2347,0.2348,0.2399,0,0,0,0,0,0,0.2327,0.2332,0.234,0.234,0.2342,0.2363,0.2344,0.2342,0.2347,0.2345,0.2337,0.2336,0.2326,0.2328,0.2328,0.2353,0.2326,0.2346,0.2347,0.2348,0.2397,0.2401,0.2405,0,0,0,0,0,0.2326,0.234,0.234,0.2344,0.2353,0.2364,0.2364,0.2356,0.2347,0.2352,0.2339,0.2336,0.2333,0.2328,0.2329,0.2355,0.2346,0.2347,0.2348,0.2395,0.2401,0.2405,0,0,0,0,0,0,0.2321,0.2339,0.2339,0.2356,0.2364,0.2361,0.2369,0.2362,0.2355,0.2354,0.234,0.2338,0.2353,0.2341,0.2336,0.2361,0.234,0.2341,0.2376,0.2381,0.2385,0.2389,0.2326,0,0,0,0,0,0.2327,0.2343,0.2354,0.2367,0.2376,0.2373,0.2377,0.2374,0.237,0.2366,0.236,0.2353,0.2357,0.2358,0.2358,0.2371,0.2373,0.2387,0.2391,0.2395,0.2397,0.2427,0.2435,0.2351,0.2351,0.2351,0,0,0.2326,0.2342,0.2347,0.2368,0.2373,0.2385,0.2373,0.2386,0.2392,0.2369,0.2374,0.2372,0.2363,0.2377,0.2383,0.2371,0.2418,0.2396,0.2399,0.2399,0.2429,0.2438,0.2445,0.2352,0.2352,0.2351,0,0,0.2331,0.2351,0.2362,0.2376,0.2395,0.2399,0.2406,0.241,0.2411,0.2418,0.2405,0.2413,0.2413,0.2414,0.2414,0.2441,0.2442,0.2443,0.2468,0.2498,0.2505,0.2512,0.2523,0.253,0.2443,0.2443,0.2443,0,0.2325,0.2347,0.2366,0.2382,0.2398,0.2408,0.2421,0.2427,0.2427,0.2437,0.2426,0.2441,0.2432,0.2456,0.2458,0.2453,0.2462,0.2452,0.2505,0.2512,0.2518,0.2528,0.2535,0.2446,0.2445,0.2445,0.2445,0,0.2334,0.2356,0.2368,0.2394,0.2413,0.243,0.2449,0.2465,0.2471,0.2475,0.2504,0.2496,0.2503,0.2507,0.2487,0.2528,0.2518,0.2512,0.2497,0.253,0.2537,0.2544,0.2449,0.2448,0.2448,0.2447,0,0,0.2296,0.2361,0.2361,0.2376,0.2424,0.2431,0.2469,0.2498,0.2517,0.2532,0.2557,0.2566,0.2568,0.2566,0.2558,0.2577,0.2619,0.256,0.256,0.2578,0.2679,0.2626,0.2628,0.2629,0.2631,0.2632,0.2666,0,0.229,0.2319,0.2363,0.2388,0.2402,0.245,0.2478,0.2509,0.254,0.2567,0.2587,0.2603,0.259,0.2594,0.2617,0.2619,0.264,0.261,0.2637,0.2637,0.2594,0.2635,0.2543,0.2562,0.2673,0.2674,0.2675,0,0.227,0.2297,0.2321,0.2383,0.2395,0.2415,0.2473,0.2504,0.2564,0.2591,0.2634,0.2646,0.2679,0.2657,0.2702,0.2686,0.2684,0.2686,0.2688,0.2626,0.2598,0.2546,0.257,0.2523,0.2685,0.2684,0.2683,0,0.2202,0.2263,0.2281,0.23,0.237,0.2394,0.2435,0.2501,0.2533,0.2606,0.263,0.2689,0.2702,0.2734,0.2737,0.2725,0.2781,0.2766,0.2722,0.2718,0.2635,0.2621,0.2621,0.2802,0.2801,0.2801,0.2801,0,0.2168,0.2179,0.2247,0.225,0.2276,0.2345,0.238,0.2441,0.2518,0.2551,0.2626,0.2658,0.2722,0.2757,0.2764,0.2765,0.2808,0.2734,0.273,0.2648,0.2635,0.2586,0.2574,0.2803,0.2802,0.2802,0.2802,0,0.2089,0.2133,0.2154,0.2223,0.224,0.2255,0.2339,0.2369,0.2454,0.2504,0.2526,0.2637,0.2691,0.2744,0.2795,0.2781,0.2726,0.2785,0.2675,0.2657,0.2553,0.2547,0.2453,0.2373,0.2742,0.2741,0.274,0,0.2055,0.2055,0.2111,0.2119,0.215,0.2185,0.2212,0.2317,0.236,0.2479,0.2496,0.2583,0.2634,0.2706,0.2717,0.274,0.268,0.2651,0.2608,0.2541,0.2533,0.2448,0.2382,0.252,0.2518,0.2515,0.2514,0,0.1995,0.2011,0.2031,0.2045,0.2066,0.2095,0.2147,0.217,0.2289,0.2336,0.2415,0.2472,0.2562,0.2567,0.2611,0.261,0.2534,0.2606,0.2576,0.2391,0.2262,0.2184,0.2496,0.2495,0.2497,0.2498,0.2499,0.25,0.1947,0.1943,0.1962,0.197,0.1988,0.2,0.1995,0.2063,0.2109,0.2179,0.229,0.2345,0.2428,0.2485,0.2468,0.2399,0.2391,0.2335,0.2344,0.2272,0.2157,0.2417,0.2386,0.2387,0.2388,0.2389,0.239,0,0.1886,0.1884,0.1889,0.1889,0.1873,0.1914,0.1942,0.1931,0.1944,0.2055,0.2113,0.2186,0.2212,0.2265,0.2253,0.2169,0.2065,0.2111,0.1986,0.1941,0.2213,0.2165,0.2039,0.2039,0.2039,0.2039,0.2039,0.2039,0.1853,0.1826,0.1824,0.177,0.1767,0.172,0.1715,0.1721,0.1776,0.1818,0.1866,0.1952,0.2114,0.2177,0.2108,0.2042,0.1888,0.1797,0.1792,0.2018,0.204,0.206,0.2013,0.1857,0.1857,0.1426,0.1423,0.1421]},{"header":{"parameterUnit":"m.s-1","parameterCategory":2,"la1":30.2991,"la2":30.254,"lo1":-89.0895,"lo2":-89.0444,"dy":0.0017,"dx":0.0017,"nx":28,"ny":28,"refTime":"2025-04-14T09:00:00:Z","depth":"0","parameterNumber":3,"parameterNumberName":"V-component_of_CURRENTS"},"data":[0,0,0,0,0,0,0,0,0,0,0,0,0,0,0,0,0,0,0,0,0,0,0,0,0,0,0,0,0,0,0,0,0,0,0,0,0,0,0,0,0,0,0,0,0,0,0,0,0,0,0,0,0,0,0,0,0,0,-0.0038,-0.0038,0,-0.0061,-0.0061,-0.0061,-0.0085,-0.0085,-0.0085,-0.0086,-0.017,-0.0172,-0.0174,0,0,0,0,0,0,0,0,0,0,0,0,0,-0.0041,-0.0041,-0.0038,-0.0038,-0.0038,-0.0061,-0.0061,-0.0062,-0.0085,-0.0085,-0.0086,-0.0086,-0.0169,-0.0171,-0.0174,0,0,0,0,0,0,0,0,0,0,0,0,0,-0.0051,-0.0041,-0.0038,-0.0051,-0.0053,-0.0061,-0.0061,-0.0062,-0.0085,-0.0085,-0.0086,-0.0086,-0.0168,-0.0171,-0.0174,-0.0188,0,0,-0.0184,-0.0185,0,0,0,0,0,0,0,0,-0.005,-0.0051,-0.0049,-0.0051,-0.0052,-0.0069,-0.0093,-0.0106,-0.0085,-0.0074,-0.0086,-0.0086,-0.0141,-0.0146,-0.0151,-0.0192,-0.0195,-0.0184,-0.0186,-0.0187,-0.0188,0,0,0,0,0,0,0,-0.005,-0.005,-0.0048,-0.0049,-0.0051,-0.0065,-0.0067,-0.0096,-0.0108,-0.0075,-0.0077,-0.0077,-0.0142,-0.0148,-0.0153,-0.0197,-0.0184,-0.0187,-0.0189,-0.019,-0.0244,-0.0244,0,0,0,0,0,0,-0.0042,-0.0049,-0.0048,-0.0049,-0.005,-0.0065,-0.0067,-0.0065,-0.0106,-0.0112,-0.0076,-0.0078,-0.0142,-0.0149,-0.0156,-0.0165,-0.0187,-0.019,-0.0192,-0.0245,-0.0244,-0.0244,0,0,0,0,0,0,-0.0042,-0.0041,-0.0047,-0.0049,-0.005,-0.0064,-0.0062,-0.0065,-0.0069,-0.0106,-0.0114,-0.0078,-0.0143,-0.0152,-0.0173,-0.0169,-0.0191,-0.0194,-0.0245,-0.0245,-0.0244,-0.0188,0,0,0,0,0,0,-0.0042,-0.0041,-0.0037,-0.0048,-0.005,-0.0047,-0.0061,-0.0065,-0.0068,-0.007,-0.011,-0.0118,-0.0144,-0.0168,-0.0176,-0.0173,-0.0197,-0.0246,-0.0245,-0.0244,-0.0191,-0.0186,-0.0182,0,0,0,0,0,-0.0042,-0.0032,-0.0037,-0.0037,-0.0044,-0.0046,-0.0048,-0.0061,-0.0068,-0.0067,-0.0089,-0.0116,-0.0169,-0.017,-0.0179,-0.0178,-0.0246,-0.0245,-0.0244,-0.0193,-0.0187,-0.0182,0,0,0,0,0,0,-0.0027,-0.0033,-0.0039,-0.0031,-0.0037,-0.0049,-0.0047,-0.0057,-0.0073,-0.0076,-0.0112,-0.0121,-0.0139,-0.0164,-0.0165,-0.0191,-0.0212,-0.0213,-0.0169,-0.0164,-0.016,-0.0142,-0.0199,0,0,0,0,0,-0.0023,-0.0018,-0.0027,-0.0019,-0.0021,-0.0034,-0.0037,-0.0045,-0.0059,-0.0067,-0.0092,-0.012,-0.0142,-0.0157,-0.0182,-0.0198,-0.0216,-0.0203,-0.0198,-0.0194,-0.0185,-0.0204,-0.02,-0.0241,-0.0241,-0.0241,0,0,-0.0014,-0.0017,-0.0014,-0.0016,-0.0022,-0.0015,-0.0036,-0.0036,-0.0032,-0.0075,-0.0079,-0.0107,-0.0142,-0.0156,-0.0166,-0.0178,-0.0193,-0.0193,-0.0189,-0.0182,-0.0202,-0.0198,-0.0195,-0.024,-0.024,-0.0241,0,0,0.0011,0.0003,0.0017,0.0012,0.0008,-0.0,0.0002,-0.001,-0.0017,-0.0027,-0.0052,-0.0071,-0.0111,-0.0128,-0.0144,-0.0131,-0.0168,-0.0145,-0.011,-0.0127,-0.0124,-0.0121,-0.014,-0.014,-0.0143,-0.0143,-0.0143,0,0.0023,0.0037,0.0021,0.0031,0.0035,0.0011,0.0028,0.0016,-0.0001,-0.0,-0.0022,-0.0062,-0.0095,-0.0103,-0.0099,-0.012,-0.0138,-0.0126,-0.0121,-0.0119,-0.0117,-0.0137,-0.0137,-0.014,-0.0141,-0.0141,-0.0141,0,0.0057,0.0066,0.0074,0.008,0.0081,0.009,0.0075,0.0073,0.0057,0.0046,0.0033,-0.0009,-0.0029,-0.0047,-0.0072,-0.0073,-0.0092,-0.0112,-0.0132,-0.0109,-0.0132,-0.0133,-0.0136,-0.0137,-0.0138,-0.0139,0,0,0.0096,0.0099,0.0103,0.0116,0.0107,0.0116,0.0121,0.0126,0.0141,0.0104,0.0118,0.0071,0.0049,0.0031,-0.0005,-0.0025,-0.0033,-0.006,-0.0062,-0.0074,-0.0073,-0.0091,-0.0094,-0.0053,-0.0053,-0.0053,-0.0095,0,0.0132,0.0165,0.0154,0.0187,0.0206,0.0184,0.0196,0.0193,0.0181,0.0184,0.0137,0.0129,0.0078,0.0069,0.0042,-0.0011,-0.0033,-0.002,-0.0098,-0.01,-0.0115,-0.0095,-0.0087,-0.0124,-0.0096,-0.0096,-0.0096,0,0.0175,0.0191,0.0231,0.025,0.0256,0.0271,0.0294,0.0299,0.0289,0.0278,0.0258,0.0217,0.0185,0.0134,0.0058,0.0068,0.0006,-0.0043,-0.0046,-0.0081,-0.0119,-0.0143,-0.0127,-0.0241,-0.0098,-0.0098,-0.0098,0,0.0222,0.0248,0.0285,0.0289,0.0304,0.0323,0.0332,0.0335,0.0354,0.0342,0.0349,0.0297,0.0276,0.0193,0.0086,0.0073,-0.0002,-0.0033,-0.0108,-0.0111,-0.0128,-0.0132,-0.0225,-0.0085,-0.0085,-0.0085,-0.0085,0,0.0268,0.0295,0.0313,0.0331,0.0382,0.0375,0.0427,0.0425,0.0438,0.0472,0.0405,0.0415,0.0289,0.0224,0.0118,0.0007,0.0022,-0.0094,-0.0119,-0.0109,-0.011,-0.023,-0.0306,-0.0087,-0.0086,-0.0086,-0.0086,0,0.0313,0.032,0.0365,0.0393,0.0406,0.0446,0.0488,0.0527,0.0525,0.0565,0.0563,0.051,0.0426,0.0292,0.0161,0.0058,-0.0124,-0.01,-0.008,-0.0102,-0.0279,-0.0352,-0.0477,-0.0528,-0.0185,-0.0185,-0.0186,0,0.0336,0.0366,0.0415,0.0449,0.0464,0.0517,0.0557,0.0572,0.0618,0.0627,0.0656,0.0585,0.0553,0.0353,0.0158,-0.0025,-0.0144,-0.0144,-0.017,-0.0281,-0.0381,-0.043,-0.0467,-0.0174,-0.0174,-0.0174,-0.0175,0,0.038,0.0401,0.0438,0.0509,0.056,0.0619,0.0677,0.0727,0.075,0.0783,0.0812,0.0784,0.0588,0.0411,0.0153,0.0017,-0.0229,-0.0157,-0.0276,-0.038,-0.0436,-0.0498,-0.0159,-0.0178,-0.0177,-0.0177,-0.0177,-0.0177,0.0413,0.0451,0.0503,0.0574,0.0632,0.071,0.0771,0.0837,0.0913,0.0969,0.0936,0.0922,0.0647,0.03,0.0102,-0.0253,-0.0265,-0.0359,-0.0438,-0.0476,-0.0528,-0.0195,-0.024,-0.024,-0.024,-0.024,-0.024,0,0.0452,0.0494,0.0561,0.0642,0.0715,0.0738,0.0844,0.0913,0.1011,0.1057,0.1081,0.0933,0.0608,0.0263,-0.0216,-0.0473,-0.0565,-0.0625,-0.0694,-0.0719,-0.0421,-0.0423,-0.0504,-0.0504,-0.0503,-0.0503,-0.0503,-0.0503,0.0471,0.0538,0.0574,0.0695,0.0757,0.0859,0.0924,0.1024,0.1088,0.1143,0.1128,0.1083,0.0795,-0.0036,-0.0605,-0.0739,-0.0926,-0.098,-0.107,-0.0874,-0.0855,-0.0837,-0.0855,-0.1025,-0.1026,-0.1315,-0.1319,-0.1321]}],[{"header":{"parameterUnit":"m.s-1","parameterCategory":2,"la1":30.2991,"la2":30.254,"lo1":-89.0895,"lo2":-89.0444,"dy":0.0017,"dx":0.0017,"nx":28,"ny":28,"refTime":"2025-04-14T09:00:00:Z","depth":"2","parameterNumber":2,"parameterNumberName":"U-component_of_CURRENTS"},"data":[0,0,0,0,0,0,0,0,0,0,0,0,0,0,0,0,0,0,0,0,0,0,0,0,0,0,0,0,0,0,0,0,0,0,0,0,0,0,0,0,0,0,0,0,0,0,0,0,0,0,0,0,0,0,0,0,0,0,0.2103,0.2104,0,0.2102,0.2101,0.2101,0.2083,0.2083,0.2083,0.2083,0.2089,0.2089,0.2089,0,0,0,0,0,0,0,0,0,0,0,0,0,0.2073,0.2074,0.2103,0.2104,0.2104,0.2102,0.2101,0.2101,0.2083,0.2083,0.2083,0.2083,0.2089,0.2089,0.2089,0,0,0,0,0,0,0,0,0,0,0,0,0,0.2077,0.2074,0.2103,0.2097,0.2097,0.2102,0.2101,0.2101,0.2083,0.2083,0.2083,0.2083,0.2089,0.2089,0.209,0.2096,0,0,0.2091,0.2091,0,0,0,0,0,0,0,0,0.2077,0.2078,0.2098,0.2098,0.2098,0.2096,0.2093,0.2101,0.2083,0.2085,0.2083,0.2083,0.2094,0.2094,0.2089,0.2096,0.2096,0.2091,0.2091,0.2091,0.2091,0,0,0,0,0,0,0,0.2077,0.2078,0.2099,0.2098,0.2098,0.2089,0.2089,0.2094,0.2088,0.2084,0.2084,0.209,0.2094,0.2089,0.2089,0.2096,0.2091,0.2091,0.2091,0.2092,0.2131,0.2131,0,0,0,0,0,0,0.2085,0.2077,0.2099,0.2099,0.2091,0.209,0.209,0.2093,0.2088,0.2088,0.209,0.2089,0.2088,0.2089,0.2089,0.2127,0.2091,0.2092,0.2092,0.213,0.2131,0.2132,0,0,0,0,0,0,0.2085,0.2087,0.2099,0.2091,0.2093,0.2091,0.2095,0.2094,0.2099,0.2092,0.2092,0.2099,0.2088,0.2089,0.2099,0.2126,0.2092,0.2092,0.2129,0.213,0.2131,0.2182,0,0,0,0,0,0,0.2084,0.2087,0.2096,0.2092,0.2094,0.2111,0.2096,0.2094,0.2104,0.2103,0.21,0.2099,0.2088,0.2098,0.2099,0.2126,0.2093,0.2128,0.2129,0.2131,0.2179,0.2185,0.2189,0,0,0,0,0,0.2083,0.2094,0.2096,0.2099,0.2105,0.2112,0.2112,0.2108,0.2105,0.2111,0.2105,0.21,0.2108,0.2099,0.21,0.2127,0.2127,0.2129,0.2131,0.2177,0.2183,0.2189,0,0,0,0,0,0,0.2084,0.2094,0.2096,0.211,0.2117,0.2111,0.2121,0.2118,0.2117,0.212,0.2107,0.2106,0.2127,0.2118,0.2108,0.2142,0.2119,0.2121,0.2153,0.2159,0.2164,0.2167,0.2093,0,0,0,0,0,0.209,0.2102,0.2109,0.2121,0.2129,0.2128,0.2133,0.2131,0.2131,0.213,0.2129,0.2129,0.2134,0.2139,0.214,0.2158,0.2158,0.2177,0.2182,0.2186,0.2189,0.2216,0.2224,0.2137,0.2137,0.2137,0,0,0.2092,0.2103,0.2108,0.2123,0.2129,0.2139,0.213,0.2144,0.2152,0.2133,0.2147,0.2149,0.2142,0.2161,0.217,0.2158,0.221,0.2189,0.2192,0.2192,0.2219,0.2228,0.2235,0.2139,0.2138,0.2138,0,0,0.2099,0.2116,0.2125,0.2136,0.2154,0.2157,0.2166,0.2172,0.2177,0.2192,0.2182,0.2196,0.2203,0.2203,0.2204,0.2239,0.2237,0.2245,0.2274,0.2301,0.2309,0.2316,0.2325,0.2332,0.2247,0.2248,0.2248,0,0.2099,0.2116,0.2129,0.2142,0.2157,0.2168,0.2182,0.219,0.2197,0.221,0.2204,0.2229,0.2223,0.2248,0.2255,0.2252,0.2261,0.2253,0.2309,0.2315,0.2321,0.2329,0.2336,0.225,0.225,0.225,0.2249,0,0.2107,0.2127,0.2138,0.216,0.2176,0.2195,0.2211,0.2232,0.2246,0.2253,0.2288,0.2284,0.2298,0.2304,0.2288,0.2331,0.2322,0.2314,0.2295,0.2333,0.2339,0.2345,0.2254,0.2253,0.2252,0.2252,0,0,0.2082,0.2133,0.2135,0.215,0.2191,0.2196,0.2236,0.2266,0.229,0.2311,0.2342,0.2356,0.2364,0.2364,0.2359,0.2379,0.2423,0.2367,0.2367,0.2378,0.2478,0.2423,0.2424,0.2433,0.2434,0.2435,0.2465,0,0.2083,0.2107,0.2142,0.2167,0.218,0.2222,0.2252,0.2283,0.2317,0.235,0.2372,0.2396,0.2385,0.2397,0.2419,0.2422,0.2443,0.2415,0.2437,0.2437,0.2386,0.2431,0.2242,0.2249,0.2471,0.2472,0.2473,0,0.2069,0.2091,0.2115,0.2169,0.218,0.2201,0.226,0.2292,0.2352,0.2382,0.2428,0.2443,0.2479,0.2461,0.2503,0.2489,0.2489,0.2489,0.2491,0.2425,0.2394,0.2247,0.2252,0.2483,0.2482,0.2482,0.2481,0,0.2016,0.207,0.2088,0.2105,0.2165,0.2193,0.2233,0.2297,0.233,0.2407,0.2435,0.2491,0.251,0.2538,0.2541,0.2531,0.258,0.2563,0.2514,0.2509,0.2344,0.2323,0.2596,0.2596,0.2596,0.2596,0.2596,0,0.1993,0.2006,0.2064,0.2069,0.2098,0.2157,0.22,0.2258,0.2333,0.2368,0.2442,0.2473,0.2532,0.2563,0.2566,0.2561,0.2605,0.2527,0.252,0.2355,0.2335,0.2532,0.2524,0.2597,0.2597,0.2597,0.2596,0,0.193,0.1968,0.1989,0.2053,0.207,0.209,0.2172,0.2203,0.2289,0.234,0.2366,0.2466,0.2513,0.2556,0.2599,0.2578,0.2587,0.2571,0.2368,0.2336,0.249,0.2485,0.2524,0.2522,0.2521,0.252,0.2519,0,0.1903,0.1904,0.1957,0.1966,0.1998,0.2038,0.2066,0.2165,0.2205,0.2321,0.2337,0.242,0.2458,0.2512,0.2502,0.2511,0.2558,0.2329,0.2273,0.2497,0.2487,0.2483,0.248,0.2072,0.2067,0.2064,0.2061,0,0.1854,0.1872,0.1889,0.1906,0.193,0.1957,0.2011,0.2033,0.2145,0.219,0.2258,0.2306,0.237,0.2304,0.2328,0.2306,0.2317,0.2254,0.2548,0.2123,0.2075,0.2063,0.2074,0.2028,0.2031,0.2033,0.2035,0.2036,0.1817,0.1813,0.1832,0.1842,0.1862,0.1871,0.1868,0.1928,0.1968,0.2021,0.2122,0.2122,0.2154,0.2098,0.2037,0.1991,0.2152,0.2051,0.2061,0.2075,0.2022,0.1974,0.1897,0.19,0.1902,0.1904,0.1905,0,0.1764,0.1762,0.1768,0.1768,0.1752,0.1795,0.1819,0.1797,0.1801,0.1871,0.191,0.1763,0.1733,0.1756,0.1642,0.165,0.1621,0.1576,0.1518,0.1553,0.1584,0.1503,0.1242,0.124,0.1237,0.1235,0,0,0.1735,0.1709,0.1705,0.1653,0.1653,0.1606,0.16,0.1583,0.1603,0.1572,0.1554,0.168,0.1727,0.1462,0.1433,0.1316,0.1423,0.1266,0.1805,0.1774,0.1802,0.1873,0.179,0,0,0,0,0]},{"header":{"parameterUnit":"m.s-1","parameterCategory":2,"la1":30.2991,"la2":30.254,"lo1":-89.0895,"lo2":-89.0444,"dy":0.0017,"dx":0.0017,"nx":28,"ny":28,"refTime":"2025-04-14T09:00:00:Z","depth":"2","parameterNumber":3,"parameterNumberName":"V-component_of_CURRENTS"},"data":[0,0,0,0,0,0,0,0,0,0,0,0,0,0,0,0,0,0,0,0,0,0,0,0,0,0,0,0,0,0,0,0,0,0,0,0,0,0,0,0,0,0,0,0,0,0,0,0,0,0,0,0,0,0,0,0,0,0,0.0139,0.0139,0,0.0122,0.0121,0.0121,0.01,0.0099,0.0099,0.0099,0.0028,0.0026,0.0024,0,0,0,0,0,0,0,0,0,0,0,0,0,0.0123,0.0124,0.0139,0.0139,0.0139,0.0122,0.0121,0.0121,0.01,0.0099,0.0099,0.0099,0.0028,0.0026,0.0024,0,0,0,0,0,0,0,0,0,0,0,0,0,0.0119,0.0124,0.0139,0.0128,0.0126,0.0122,0.0121,0.0121,0.01,0.0099,0.0099,0.0099,0.0029,0.0027,0.0024,0.0014,0,0,0.0016,0.0015,0,0,0,0,0,0,0,0,0.012,0.012,0.0129,0.0128,0.0127,0.0114,0.009,0.0083,0.01,0.0108,0.0099,0.0099,0.0053,0.0048,0.0044,0.0011,0.0008,0.0016,0.0014,0.0013,0.0013,0,0,0,0,0,0,0,0.012,0.012,0.0131,0.0129,0.0128,0.0112,0.0112,0.0088,0.008,0.0108,0.0106,0.0107,0.0051,0.0047,0.0042,0.0007,0.0016,0.0014,0.0012,0.0011,-0.004,-0.004,0,0,0,0,0,0,0.0127,0.0121,0.0132,0.0131,0.0124,0.0113,0.0112,0.0117,0.0082,0.0077,0.0107,0.0106,0.0051,0.0045,0.004,0.0029,0.0013,0.0011,0.0009,-0.004,-0.004,-0.004,0,0,0,0,0,0,0.0127,0.0128,0.0132,0.0126,0.0126,0.0114,0.012,0.0117,0.0111,0.0082,0.0076,0.0103,0.0051,0.0043,0.0025,0.0026,0.001,0.0007,-0.0041,-0.004,-0.004,0.0006,0,0,0,0,0,0,0.0127,0.0129,0.0133,0.0127,0.0126,0.0133,0.012,0.0117,0.0112,0.011,0.0077,0.007,0.005,0.0029,0.0022,0.0022,0.0005,-0.0041,-0.004,-0.004,0.0004,0.0007,0.001,0,0,0,0,0,0.0126,0.0138,0.0133,0.0134,0.0133,0.0134,0.0132,0.0121,0.0113,0.0113,0.0093,0.0071,0.0026,0.0027,0.0019,0.0018,-0.0041,-0.0041,-0.004,0.0002,0.0007,0.001,0,0,0,0,0,0,0.0135,0.0136,0.0131,0.0143,0.0139,0.013,0.0132,0.0123,0.0108,0.0104,0.0074,0.0066,0.005,0.0028,0.003,0.0004,-0.0012,-0.0013,0.0023,0.0027,0.003,0.0045,0.0003,0,0,0,0,0,0.0139,0.0147,0.0143,0.0152,0.0152,0.0141,0.0139,0.0131,0.0119,0.0112,0.009,0.0066,0.0046,0.0033,0.0012,-0.0003,-0.0022,-0.0009,-0.0006,-0.0003,0.0004,-0.0018,-0.0016,-0.0039,-0.0039,-0.0039,0,0,0.0146,0.0148,0.0152,0.0154,0.0151,0.0158,0.0139,0.0139,0.0142,0.0106,0.0101,0.0076,0.0045,0.0033,0.0023,0.0014,-0.0007,-0.0002,0.0001,0.0006,-0.0018,-0.0016,-0.0014,-0.0038,-0.0038,-0.0039,0,0,0.0169,0.0165,0.018,0.0177,0.0174,0.0169,0.017,0.0161,0.0153,0.0143,0.0121,0.0101,0.0067,0.0052,0.0038,0.0046,0.0012,0.0033,0.006,0.0037,0.0039,0.0041,0.0018,0.0017,0.0033,0.0033,0.0033,0,0.0176,0.0195,0.0183,0.0195,0.0199,0.0177,0.0194,0.0183,0.0167,0.0166,0.0146,0.0108,0.0079,0.007,0.0072,0.0054,0.0034,0.0048,0.0043,0.0043,0.0044,0.002,0.0019,0.0036,0.0035,0.0035,0.0035,0,0.0209,0.022,0.0229,0.0238,0.024,0.0248,0.0236,0.0232,0.0216,0.0205,0.0189,0.015,0.013,0.0113,0.0092,0.0084,0.0067,0.0051,0.0035,0.0049,0.0023,0.0021,0.0039,0.0038,0.0037,0.0037,0,0,0.024,0.0251,0.0253,0.0267,0.0263,0.0272,0.0275,0.0278,0.0288,0.0253,0.0259,0.0216,0.0194,0.0177,0.0144,0.012,0.0103,0.0089,0.0087,0.0072,0.0052,0.0036,0.0032,0.0084,0.0084,0.0084,0.0032,0,0.0271,0.0305,0.0299,0.0331,0.035,0.0332,0.0341,0.0336,0.0323,0.032,0.0273,0.0263,0.0218,0.0208,0.0177,0.0125,0.0098,0.0118,0.0036,0.0034,0.0023,0.0029,0.0047,0.0002,0.0029,0.0028,0.0028,0,0.031,0.0327,0.0366,0.0387,0.0393,0.0407,0.0425,0.0429,0.0413,0.04,0.0376,0.0337,0.03,0.0256,0.0174,0.0188,0.0126,0.0078,0.0075,0.0045,0.0014,-0.0008,-0.0004,0.0023,0.0024,0.0024,0.0024,0,0.0348,0.0376,0.0412,0.0417,0.0434,0.045,0.0459,0.0458,0.0474,0.0455,0.0459,0.0401,0.0377,0.0294,0.0191,0.0182,0.0095,0.0071,-0.0002,-0.0004,-0.0012,-0.0014,0.0012,0.0013,0.0013,0.0013,0.0013,0,0.0388,0.0414,0.0435,0.0452,0.0499,0.0495,0.054,0.0536,0.0544,0.0572,0.0507,0.051,0.0385,0.0317,0.0214,0.0102,0.0112,0.0007,-0.0016,0.0004,0.0003,0.0003,0.0003,0.0011,0.0011,0.0012,0.0012,0,0.0426,0.0435,0.0479,0.0506,0.052,0.0555,0.0596,0.0629,0.0624,0.0657,0.0653,0.0595,0.0506,0.0374,0.024,0.0143,0.003,-0.0014,0.0017,-0.0002,-0.0062,-0.0059,-0.0099,-0.01,-0.01,-0.0101,-0.0102,0,0.0446,0.0474,0.0522,0.0554,0.057,0.0619,0.0656,0.0669,0.071,0.0713,0.0736,0.0659,0.0619,0.0414,0.0227,0.0047,0.0024,-0.0056,-0.0071,-0.0053,-0.0072,-0.0068,-0.0065,-0.0067,-0.0067,-0.0067,-0.0067,0,0.0485,0.0505,0.054,0.0607,0.0656,0.0713,0.0767,0.0812,0.0832,0.0858,0.0874,0.0839,0.064,0.0462,0.0211,0.0089,-0.0027,-0.0066,-0.0054,-0.0039,-0.0027,-0.0044,-0.0041,-0.0069,-0.0069,-0.0069,-0.0068,-0.0068,0.0514,0.0549,0.06,0.0666,0.0722,0.0797,0.0854,0.0913,0.098,0.1017,0.098,0.0929,0.0722,0.0403,0.0185,-0.0047,-0.0036,-0.0114,-0.0112,-0.011,-0.0094,-0.0084,-0.0134,-0.0134,-0.0134,-0.0134,-0.0135,0,0.0549,0.0589,0.0652,0.073,0.0799,0.0822,0.0921,0.0981,0.1064,0.1079,0.1085,0.0894,0.0684,0.0439,0.0098,-0.0101,-0.0116,-0.0166,-0.0136,-0.0132,-0.013,-0.0115,-0.0161,-0.0161,-0.0162,-0.0163,0,0,0.0567,0.063,0.0664,0.0779,0.0837,0.0934,0.0995,0.1078,0.1116,0.1141,0.1105,0.1039,0.0747,0.0501,0.0228,0.003,-0.0009,-0.0012,0.0032,0.0103,0.0107,-0.0077,-0.0046,0,0,0,0,0]}],[{"header":{"parameterUnit":"m.s-1","parameterCategory":2,"la1":30.2991,"la2":30.254,"lo1":-89.0895,"lo2":-89.0444,"dy":0.0017,"dx":0.0017,"nx":28,"ny":28,"refTime":"2025-04-14T09:00:00:Z","depth":"4","parameterNumber":2,"parameterNumberName":"U-component_of_CURRENTS"},"data":[0,0,0,0,0,0,0,0,0,0,0,0,0,0,0,0,0,0,0,0,0,0,0,0,0,0,0,0,0,0,0,0,0,0,0,0,0,0,0,0,0,0,0,0,0,0,0,0,0,0,0,0,0,0,0,0,0,0,0.1243,0.1244,0,0.1271,0.1272,0.1272,0.1304,0.1304,0.1305,0.1305,0.1323,0.1323,0.1323,0,0,0,0,0,0,0,0,0,0,0,0,0,0.1215,0.1215,0.1243,0.1244,0.1244,0.1271,0.1272,0.1272,0.1304,0.1304,0.1305,0.1306,0.1323,0.1323,0.1323,0,0,0,0,0,0,0,0,0,0,0,0,0,0.1232,0.1215,0.1243,0.1264,0.1267,0.1271,0.1272,0.1272,0.1303,0.1304,0.1305,0.1306,0.1323,0.1323,0.1322,0.1303,0,0,0.1322,0.1322,0,0,0,0,0,0,0,0,0.1231,0.1233,0.1261,0.1263,0.1266,0.1286,0.1268,0.1282,0.1303,0.1288,0.1305,0.1307,0.131,0.1311,0.1312,0.1304,0.1305,0.1322,0.1322,0.1322,0.1322,0,0,0,0,0,0,0,0.123,0.1232,0.1253,0.1261,0.1264,0.1272,0.1275,0.1271,0.1292,0.1289,0.1292,0.1297,0.1311,0.1312,0.1313,0.1305,0.1322,0.1322,0.1322,0.1322,0.1374,0.1376,0,0,0,0,0,0,0.1228,0.123,0.1252,0.1254,0.1252,0.1272,0.1276,0.1277,0.1292,0.1296,0.1297,0.1299,0.1312,0.1313,0.1313,0.1368,0.1322,0.1322,0.1322,0.1373,0.1375,0.1376,0,0,0,0,0,0,0.1228,0.123,0.1251,0.1244,0.1248,0.1272,0.1273,0.1278,0.1307,0.1298,0.1302,0.1325,0.1313,0.1314,0.134,0.1366,0.1322,0.1321,0.1371,0.1373,0.1375,0.1428,0,0,0,0,0,0,0.1226,0.1229,0.1245,0.1244,0.1248,0.1271,0.1273,0.1278,0.1308,0.1311,0.1323,0.1324,0.1313,0.1341,0.134,0.1365,0.1321,0.1369,0.1372,0.1375,0.1424,0.1431,0.1438,0,0,0,0,0,0.1225,0.1235,0.1245,0.1249,0.1264,0.1272,0.1275,0.1293,0.1308,0.1323,0.1339,0.1325,0.1358,0.1342,0.1341,0.1366,0.1368,0.1371,0.1374,0.1421,0.143,0.1437,0,0,0,0,0,0,0.1234,0.124,0.125,0.1264,0.1277,0.1278,0.1299,0.1309,0.1332,0.1347,0.1339,0.1341,0.1376,0.1365,0.1347,0.1392,0.1362,0.1366,0.1398,0.1407,0.1413,0.1417,0.1321,0,0,0,0,0,0.1241,0.1253,0.1259,0.1275,0.1284,0.1298,0.131,0.1323,0.1336,0.1349,0.1359,0.1372,0.1383,0.1392,0.1399,0.1417,0.1414,0.1435,0.1442,0.1448,0.1452,0.1477,0.1487,0.1387,0.1387,0.1387,0,0,0.125,0.1256,0.1264,0.1279,0.1293,0.1304,0.1308,0.1335,0.1353,0.1346,0.1385,0.1398,0.1396,0.1423,0.1437,0.142,0.1476,0.1452,0.1457,0.1458,0.1482,0.1491,0.15,0.1389,0.1389,0.1389,0,0,0.126,0.128,0.1289,0.1301,0.1327,0.1332,0.1346,0.1366,0.1388,0.1419,0.1425,0.1458,0.147,0.1478,0.1479,0.1527,0.1513,0.1535,0.1568,0.1593,0.1602,0.1609,0.1618,0.1625,0.1535,0.1536,0.1536,0,0.1275,0.1285,0.1296,0.1307,0.1325,0.1347,0.1364,0.1381,0.1411,0.1436,0.1443,0.1495,0.1494,0.1526,0.1546,0.1542,0.1551,0.1534,0.1602,0.1609,0.1615,0.1623,0.163,0.1538,0.1538,0.1538,0.1538,0,0.1279,0.1302,0.1312,0.1332,0.1349,0.1373,0.1393,0.1429,0.1462,0.1481,0.154,0.1551,0.1584,0.159,0.1581,0.1631,0.1621,0.1609,0.1578,0.1628,0.1633,0.164,0.1543,0.1542,0.1541,0.154,0,0,0.1276,0.1311,0.1318,0.1335,0.1371,0.138,0.1424,0.1464,0.1503,0.1544,0.1595,0.1626,0.1652,0.1657,0.1661,0.1679,0.173,0.1669,0.1669,0.1673,0.1784,0.1671,0.1668,0.1736,0.1738,0.1739,0.1769,0,0.1285,0.1308,0.1327,0.136,0.1374,0.1416,0.145,0.1492,0.1539,0.1594,0.1629,0.1677,0.167,0.1702,0.1723,0.1732,0.1752,0.1723,0.1739,0.1739,0.1629,0.1673,0.1744,0.1774,0.1776,0.1777,0.1778,0,0.1278,0.1297,0.133,0.1378,0.1391,0.142,0.1493,0.1529,0.1604,0.1647,0.1709,0.1737,0.1788,0.1772,0.1817,0.1804,0.1804,0.1801,0.1802,0.1681,0.1639,0.1715,0.179,0.1789,0.1788,0.1787,0.1787,0,0.125,0.1297,0.1328,0.1343,0.1398,0.144,0.1483,0.1556,0.1598,0.1694,0.1738,0.18,0.1841,0.1861,0.1866,0.1855,0.1899,0.1879,0.1775,0.1767,0.1835,0.1827,0.191,0.191,0.191,0.191,0.1909,0,0.1231,0.1259,0.1325,0.1338,0.139,0.1436,0.1505,0.1563,0.1646,0.1693,0.177,0.1808,0.1869,0.1897,0.1892,0.1852,0.1925,0.1786,0.177,0.1857,0.1851,0.184,0.1832,0.1911,0.191,0.191,0.191,0,0.1188,0.1232,0.1271,0.1346,0.1375,0.1415,0.1511,0.1551,0.1645,0.1711,0.1746,0.1833,0.1869,0.1902,0.1931,0.1871,0.1853,0.1819,0.1912,0.19,0.1697,0.1692,0.1706,0.1702,0.1699,0.1696,0.1694,0,0.1165,0.1181,0.1268,0.1295,0.1338,0.1406,0.1447,0.1545,0.1584,0.1703,0.172,0.18,0.1841,0.1787,0.1836,0.1821,0.1795,0.1773,0.173,0.1695,0.1679,0.1678,0.1676,0.1689,0.1689,0.1688,0.1687,0,0.1122,0.1168,0.12,0.1256,0.1307,0.135,0.1419,0.1436,0.1539,0.1635,0.1651,0.1666,0.1699,0.1712,0.1714,0.17,0.1781,0.174,0.1746,0.1705,0.1675,0.1662,0.1664,0.1676,0.1678,0.1679,0.1679,0,0.1099,0.1111,0.116,0.1198,0.1256,0.127,0.1317,0.135,0.1396,0.152,0.1522,0.1599,0.1681,0.1649,0.1652,0.1632,0.1602,0.1539,0.1554,0.1567,0.1506,0.1446,0.1367,0,0,0,0,0,0.1064,0.1061,0.1093,0.1119,0.1172,0.1204,0.1282,0.1327,0.1424,0.1396,0.1453,0.1475,0.148,0.1522,0.1471,0.1595,0.1613,0.1529,0.155,0.1616,0.1629,0.1569,0,0,0,0,0,0,0.1036,0.1063,0.1063,0.1044,0.1049,0.109,0.1135,0.1203,0.1191,0.1297,0.1306,0.1384,0.1412,0.149,0.1442,0.1454,0.1435,0.1581,0.1577,0.1609,0.1621,0.1631,0.1574,0,0,0,0,0]},{"header":{"parameterUnit":"m.s-1","parameterCategory":2,"la1":30.2991,"la2":30.254,"lo1":-89.0895,"lo2":-89.0444,"dy":0.0017,"dx":0.0017,"nx":28,"ny":28,"refTime":"2025-04-14T09:00:00:Z","depth":"4","parameterNumber":3,"parameterNumberName":"V-component_of_CURRENTS"},"data":[0,0,0,0,0,0,0,0,0,0,0,0,0,0,0,0,0,0,0,0,0,0,0,0,0,0,0,0,0,0,0,0,0,0,0,0,0,0,0,0,0,0,0,0,0,0,0,0,0,0,0,0,0,0,0,0,0,0,0.021,0.021,0,0.0206,0.0206,0.0206,0.0202,0.0202,0.0202,0.0202,0.0179,0.0179,0.0178,0,0,0,0,0,0,0,0,0,0,0,0,0,0.0185,0.0186,0.021,0.021,0.021,0.0206,0.0206,0.0206,0.0202,0.0202,0.0202,0.0202,0.0179,0.0179,0.0178,0,0,0,0,0,0,0,0,0,0,0,0,0,0.019,0.0186,0.021,0.0208,0.0208,0.0206,0.0206,0.0206,0.0202,0.0202,0.0202,0.0202,0.018,0.0179,0.0178,0.0171,0,0,0.0175,0.0174,0,0,0,0,0,0,0,0,0.0189,0.019,0.0209,0.0208,0.0208,0.0206,0.0189,0.0194,0.0202,0.0204,0.0202,0.0202,0.0187,0.0185,0.0183,0.017,0.0169,0.0175,0.0174,0.0174,0.0173,0,0,0,0,0,0,0,0.0189,0.019,0.0208,0.0209,0.0209,0.0198,0.0199,0.019,0.0194,0.0203,0.0203,0.0204,0.0186,0.0184,0.0183,0.0169,0.0175,0.0174,0.0173,0.0173,0.0149,0.0149,0,0,0,0,0,0,0.0193,0.019,0.0208,0.0208,0.02,0.0199,0.02,0.0206,0.0194,0.0193,0.0204,0.0204,0.0186,0.0184,0.0182,0.0181,0.0174,0.0173,0.0172,0.0149,0.0149,0.0149,0,0,0,0,0,0,0.0193,0.0195,0.0208,0.0199,0.02,0.0199,0.0206,0.0206,0.0207,0.0196,0.0194,0.0207,0.0186,0.0183,0.0179,0.018,0.0172,0.0172,0.0149,0.0149,0.0149,0.0175,0,0,0,0,0,0,0.0192,0.0195,0.0201,0.02,0.0201,0.0211,0.0206,0.0206,0.0208,0.0208,0.0197,0.0195,0.0186,0.018,0.0178,0.0179,0.0171,0.0149,0.0149,0.0149,0.0174,0.0176,0.0177,0,0,0,0,0,0.0191,0.0201,0.0202,0.0204,0.021,0.0211,0.0211,0.0209,0.0208,0.021,0.0204,0.0195,0.0177,0.018,0.0177,0.0177,0.0149,0.0149,0.0149,0.0173,0.0175,0.0177,0,0,0,0,0,0,0.0195,0.0202,0.0202,0.0214,0.0214,0.0211,0.0216,0.0212,0.0209,0.0209,0.0197,0.0194,0.019,0.0179,0.0182,0.0169,0.0161,0.016,0.018,0.0182,0.0183,0.0188,0.017,0,0,0,0,0,0.0199,0.0209,0.021,0.022,0.0222,0.0219,0.0219,0.0217,0.0214,0.0213,0.0206,0.0196,0.0186,0.0182,0.0172,0.0167,0.0147,0.0163,0.0165,0.0166,0.0167,0.0138,0.0137,0.0148,0.0148,0.0148,0,0,0.0204,0.0209,0.0215,0.0222,0.0223,0.0229,0.0219,0.0223,0.0227,0.021,0.0214,0.0202,0.0186,0.0181,0.0178,0.0173,0.0152,0.0166,0.0168,0.0168,0.0138,0.0136,0.0135,0.0148,0.0148,0.0148,0,0,0.022,0.0224,0.0237,0.0237,0.024,0.0239,0.0241,0.0239,0.0237,0.0236,0.0225,0.0214,0.0203,0.019,0.0182,0.0184,0.0162,0.0181,0.0192,0.0163,0.0162,0.0161,0.0133,0.0129,0.0181,0.0181,0.0181,0,0.0226,0.0243,0.024,0.0249,0.0255,0.0245,0.0258,0.0252,0.0249,0.0247,0.0241,0.022,0.0206,0.0194,0.0196,0.0188,0.0169,0.0189,0.0166,0.0164,0.0162,0.0134,0.0129,0.0182,0.0182,0.0182,0.0182,0,0.0247,0.026,0.0268,0.0279,0.0283,0.0291,0.0286,0.0285,0.0281,0.0274,0.0262,0.024,0.0227,0.0218,0.0208,0.019,0.018,0.0172,0.0163,0.0163,0.0132,0.0127,0.0184,0.0183,0.0183,0.0183,0,0,0.0266,0.0281,0.0285,0.0297,0.03,0.0308,0.0311,0.0312,0.0317,0.0298,0.0297,0.0271,0.0257,0.0246,0.0226,0.0199,0.0169,0.0184,0.0182,0.0159,0.0105,0.0105,0.0099,0.0158,0.0157,0.0157,0.0089,0,0.0286,0.0313,0.0314,0.034,0.0355,0.0347,0.0353,0.0349,0.0341,0.0336,0.0299,0.0293,0.0268,0.0264,0.023,0.0189,0.0156,0.0188,0.0106,0.0104,0.0106,0.0093,0.0155,0.0085,0.0083,0.0083,0.0082,0,0.0311,0.0326,0.0357,0.0377,0.0383,0.0396,0.0408,0.0412,0.0394,0.0385,0.0361,0.0335,0.0296,0.0274,0.019,0.0213,0.0162,0.0122,0.0118,0.0106,0.0094,0.0084,0.0072,0.0073,0.0073,0.0074,0.0075,0,0.0333,0.0359,0.0388,0.0394,0.0411,0.0426,0.0436,0.0431,0.0442,0.042,0.0421,0.0364,0.0344,0.0268,0.0187,0.0189,0.0091,0.0082,0.0028,0.0027,0.0037,0.0039,0.0016,0.0016,0.0016,0.0016,0.0017,0,0.0356,0.0379,0.0405,0.0419,0.0458,0.0459,0.0494,0.049,0.0491,0.0506,0.0454,0.0446,0.0343,0.0276,0.0193,0.0096,0.0093,0.0026,0.0009,0.0049,0.0054,0.0033,0.0036,0.0014,0.0014,0.0015,0.0015,0,0.0376,0.039,0.0427,0.0456,0.0472,0.0501,0.0543,0.0562,0.0558,0.0574,0.057,0.0507,0.0421,0.031,0.0186,0.0115,0.0015,-0.002,0.0032,0.0019,-0.0033,-0.0028,-0.0088,-0.0089,-0.009,-0.009,-0.009,0,0.0387,0.041,0.046,0.049,0.0509,0.0555,0.0586,0.0598,0.0621,0.0612,0.0619,0.0545,0.0489,0.0312,0.0192,0.0025,0.0003,-0.0055,-0.0048,-0.0033,-0.0044,-0.0038,-0.0033,-0.0091,-0.0091,-0.0091,-0.0091,0,0.0408,0.0431,0.0461,0.0524,0.0569,0.0618,0.0663,0.0684,0.0695,0.0691,0.0658,0.0563,0.0463,0.0319,0.0189,0.007,-0.0021,-0.006,-0.006,-0.0055,-0.0037,-0.0046,-0.004,-0.0093,-0.0093,-0.0093,-0.0093,0,0.0426,0.0453,0.0499,0.0554,0.0611,0.0662,0.0685,0.0709,0.0727,0.0712,0.07,0.0587,0.052,0.0342,0.0224,0.0105,0.0073,0.003,0.0024,0.0025,0.0077,0.0117,0.0091,0,0,0,0,0,0.0439,0.0471,0.0523,0.0582,0.0639,0.0676,0.0727,0.0743,0.0754,0.0737,0.072,0.0626,0.0447,0.037,0.0251,0.0209,0.005,0.0065,-0.0003,-0.0103,-0.0101,-0.0059,0,0,0,0,0,0,0.0446,0.0496,0.0522,0.0596,0.0641,0.0706,0.0741,0.0751,0.0742,0.0733,0.0642,0.0592,0.0421,0.0517,0.0248,0.0212,0.0151,-0.0018,-0.002,-0.0104,-0.0102,-0.0101,-0.0057,0,0,0,0,0]}]]